AEHF-1 (USA 214)

Last updated on Jan. 22, 2021, 6:26 a.m. UTC

1 36868U 10039A   21021.77298794  .00000034  00000-0  00000-0 0  9990
2 36868   3.2720  94.0712 0001275 271.7154  37.7856  1.00273313 33879
UTC
Height (km)
Latitude
Longitude
Inclination
Orbital Period
UTC large
Height (km)
Speed (km/s)
/
Latitude / Longitude
Inclination (degrees)
Orbital Period (minutes)
Azimuth
Elevation
Range (km)
Doppler Factor
iOS Compass Heading
iOS Angle

Next 30 passes for location: Hong Kong

Rise time Rise Azimuth (degrees) Set time Set Azimuth (degrees) Duration Max altitude (degrees)

No matching passes for this satellites